Flag for Austria Weather past 2 weeks in Hollabrunn, Lower Austria, Austria

Now
56 °F

Cool.


Feels Like: 56 °F
Forecast: 52 / 71 °F
Wind: 3 mph from Northeast

Location: Retz

Current Time: Sep 18, 2014 at 6:03:17 AM

Latest Report: Sep 18, 2014 at 4:00 AM


Visibility: N/A

Pressure: 30.01 "Hg

Humidity: 87%

Dew point: 52 °F

Location of HollabrunnLocation

Historic Weather in Hollabrunn — Graph

°F

Hollabrunn temperature yesterday

Maximum temperature yesterday: 69 °F (at 3:00 PM)
Minimum temperature yesterday: 55 °F (at 7:00 AM)
Average temperature yesterday: 62 °F

Past Weeks' High & Low Weather Summary

 TemperatureHumidityPressure
High76 °F (Sep 4, 4:00 PM)99% (Sep 14, 9:00 AM)30.09 "Hg (Sep 14, 9:00 AM)
Low55 °F (Sep 17, 7:00 AM)52% (Sep 8, 4:00 PM)29.77 "Hg (Sep 12, 6:00 AM)
Average63 °F81%29.99 "Hg
* Reported Sep 3 4:00 AM — Sep 18 4:00 AM, Hollabrunn, Weather by CustomWeather, © 2014

Note: Actual official high and low records may vary slightly from our data, if they occured in-between our weather recording intervals... More about our weather records

Advertising

Hollabrunn weather history for previous 24 hours

 ConditionsComfort  
Time TempWeatherWind HumidityBarometerVisibility
4:00 AM
Sep 18
56 °FCool.3 mph87%30.01 "HgN/A
3:00 AM56 °FCool.5 mph91%30.01 "HgN/A
2:00 AM55 °FCool.5 mph92%30.03 "HgN/A
1:00 AM58 °FCool.5 mph84%30.02 "HgN/A
12:00 AM59 °FCool.3 mph82%30.02 "HgN/A
11:00 PM
Sep 17
61 °FCool.2 mph78%30.03 "HgN/A
10:00 PM61 °FCool.3 mph76%30.03 "HgN/A
9:00 PM62 °FCool.2 mph77%30.03 "HgN/A
8:00 PM63 °FClear.2 mph73%30.01 "Hg11 mi
7:00 PM65 °FMild.3 mph67%30.00 "HgN/A
6:00 PM68 °FMild.6 mph61%30.00 "HgN/A
5:00 PM69 °FMild.7 mph59%30.00 "HgN/A
4:00 PM69 °FMild.6 mph60%30.00 "HgN/A
3:00 PM69 °FMild.6 mph58%30.01 "HgN/A
2:00 PM69 °FPassing clouds.6 mph60%30.03 "Hg11 mi
1:00 PM68 °FMild.6 mph62%30.04 "HgN/A
12:00 PM67 °FMild.6 mph62%30.05 "HgN/A
11:00 AM65 °FMild.3 mph74%30.06 "HgN/A
10:00 AM61 °FCool.5 mph89%30.07 "HgN/A
9:00 AM58 °FCool.5 mph92%30.06 "HgN/A
8:00 AM56 °FPassing clouds.5 mph94%30.06 "Hg2 mi
7:00 AM55 °FPassing clouds.5 mph96%30.06 "Hg2 mi
6:00 AM55 °FCool.3 mph97%30.05 "HgN/A
Weather by CustomWeather, © 2014

See weather overviewHow to use our weather pages